TimeCST,TemperatureF,Dew PointF,Humidity,Sea Level PressureIn,VisibilityMPH,Wind Direction,Wind SpeedMPH,Gust SpeedMPH,PrecipitationIn,Events,Conditions,WindDirDegrees,DateUTC
12:15 AM,10.4,5.0,79,30.22,10.0,South,4.6,-,N/A,,Overcast,190,2012-12-26 06:15:00
12:35 AM,11.3,5.9,79,30.21,10.0,Calm,Calm,-,N/A,Snow,Light Snow,0,2012-12-26 06:35:00
12:55 AM,12.2,6.4,78,30.21,7.0,South,5.8,-,N/A,Snow,Light Snow,170,2012-12-26 06:55:00
1:15 AM,12.2,6.4,78,30.19,5.0,South,6.9,-,N/A,Snow,Light Snow,170,2012-12-26 07:15:00
1:35 AM,12.2,6.6,78,30.19,4.0,SSE,5.8,-,N/A,Snow,Light Snow,150,2012-12-26 07:35:00
1:55 AM,12.2,7.0,80,30.18,4.0,SSE,5.8,-,N/A,Snow,Light Snow,150,2012-12-26 07:55:00
2:15 AM,12.6,7.3,80,30.17,10.0,SSE,8.1,-,N/A,Snow,Light Snow,150,2012-12-26 08:15:00
2:35 AM,12.7,7.5,80,30.16,10.0,SSE,9.2,-,N/A,Snow,Light Snow,150,2012-12-26 08:35:00
2:55 AM,12.6,7.5,80,30.16,10.0,SE,6.9,-,N/A,,Overcast,130,2012-12-26 08:55:00
3:15 AM,11.1,5.9,80,30.15,10.0,SSE,9.2,-,N/A,,Mostly Cloudy,150,2012-12-26 09:15:00
3:35 AM,9.1,3.9,79,30.15,10.0,SSE,9.2,-,N/A,,Scattered Clouds,150,2012-12-26 09:35:00
3:55 AM,8.1,2.8,79,30.14,10.0,SSE,8.1,-,N/A,,Clear,160,2012-12-26 09:55:00
4:15 AM,6.4,1.4,80,30.14,10.0,SSE,8.1,-,N/A,,Clear,160,2012-12-26 10:15:00
4:35 AM,5.7,0.7,80,30.13,10.0,South,9.2,-,N/A,,Clear,170,2012-12-26 10:35:00
4:55 AM,5.9,1.0,80,30.12,10.0,South,8.1,-,N/A,,Clear,170,2012-12-26 10:55:00
5:15 AM,4.6,-0.4,80,30.13,10.0,South,8.1,-,N/A,,Clear,170,2012-12-26 11:15:00
5:35 AM,3.2,-2.0,79,30.12,10.0,South,8.1,-,N/A,,Clear,180,2012-12-26 11:35:00
5:55 AM,3.6,-1.1,81,30.13,10.0,South,6.9,-,N/A,,Clear,190,2012-12-26 11:55:00
6:15 AM,1.9,-3.1,79,30.13,10.0,South,4.6,-,N/A,,Clear,190,2012-12-26 12:15:00
6:35 AM,1.8,-3.5,79,30.13,10.0,South,5.8,-,N/A,,Clear,170,2012-12-26 12:35:00
6:55 AM,3.2,-1.7,80,30.12,10.0,South,8.1,-,N/A,,Clear,170,2012-12-26 12:55:00
7:15 AM,3.2,-2.0,79,30.12,10.0,South,8.1,-,N/A,,Clear,170,2012-12-26 13:15:00
7:35 AM,3.2,-1.8,80,30.11,10.0,South,9.2,-,N/A,,Clear,170,2012-12-26 13:35:00
7:55 AM,3.0,-2.2,79,30.10,10.0,South,9.2,-,N/A,,Clear,170,2012-12-26 13:55:00
8:15 AM,2.7,-2.6,79,30.10,10.0,South,9.2,-,N/A,,Clear,170,2012-12-26 14:15:00
8:35 AM,3.0,-2.2,79,30.09,10.0,South,9.2,-,N/A,,Clear,170,2012-12-26 14:35:00
8:55 AM,4.1,-1.3,78,30.08,10.0,South,9.2,-,N/A,,Clear,170,2012-12-26 14:55:00
9:15 AM,5.2,-0.0,79,30.08,10.0,South,8.1,-,N/A,,Clear,170,2012-12-26 15:15:00
9:35 AM,7.5,2.3,79,30.08,10.0,South,10.4,-,N/A,,Clear,170,2012-12-26 15:35:00
9:55 AM,10.0,4.3,78,30.08,10.0,South,11.5,-,N/A,,Clear,190,2012-12-26 15:55:00
10:15 AM,11.1,5.5,78,30.08,10.0,SSW,12.7,-,N/A,,Clear,200,2012-12-26 16:15:00
10:35 AM,12.7,7.0,78,30.08,10.0,South,13.8,-,N/A,,Clear,190,2012-12-26 16:35:00
10:55 AM,15.3,8.8,76,30.08,10.0,South,16.1,-,N/A,,Clear,190,2012-12-26 16:55:00
11:15 AM,15.4,8.2,73,30.07,10.0,SSW,16.1,-,N/A,,Clear,200,2012-12-26 17:15:00
11:35 AM,16.0,7.9,70,30.07,10.0,South,16.1,-,N/A,,Clear,180,2012-12-26 17:35:00
11:55 AM,17.1,8.8,70,30.06,10.0,South,11.5,-,N/A,,Clear,190,2012-12-26 17:55:00
12:15 PM,17.2,8.8,69,30.04,10.0,South,13.8,18.4,N/A,,Clear,180,2012-12-26 18:15:00
12:35 PM,18.1,9.5,69,30.03,10.0,South,11.5,-,N/A,,Clear,190,2012-12-26 18:35:00
12:55 PM,19.0,9.9,67,30.02,10.0,SSW,13.8,-,N/A,,Clear,200,2012-12-26 18:55:00
1:15 PM,19.9,10.8,68,30.02,10.0,South,10.4,-,N/A,,Clear,180,2012-12-26 19:15:00
1:35 PM,19.9,10.9,68,30.01,10.0,South,13.8,-,N/A,,Clear,190,2012-12-26 19:35:00
1:55 PM,19.2,10.4,69,30.01,10.0,South,11.5,-,N/A,,Scattered Clouds,180,2012-12-26 19:55:00
2:15 PM,19.0,10.4,69,29.99,10.0,SSE,11.5,-,N/A,,Overcast,160,2012-12-26 20:15:00
2:35 PM,19.8,10.8,68,29.98,10.0,South,11.5,-,N/A,,Overcast,180,2012-12-26 20:35:00
2:55 PM,19.2,10.0,67,29.97,10.0,South,12.7,-,N/A,,Mostly Cloudy,170,2012-12-26 20:55:00
3:15 PM,19.4,10.0,67,29.97,10.0,SSE,12.7,-,N/A,,Overcast,160,2012-12-26 21:15:00
3:35 PM,18.9,9.3,66,29.96,10.0,SSE,11.5,16.1,N/A,,Overcast,150,2012-12-26 21:35:00
3:55 PM,18.7,9.3,67,29.96,10.0,SSE,10.4,-,N/A,,Mostly Cloudy,150,2012-12-26 21:55:00
4:15 PM,18.5,8.8,66,29.96,10.0,SSE,11.5,-,N/A,,Mostly Cloudy,150,2012-12-26 22:15:00
4:35 PM,18.3,8.8,66,29.96,10.0,SSE,12.7,-,N/A,,Overcast,150,2012-12-26 22:35:00
4:55 PM,18.5,8.8,66,29.97,10.0,SSE,10.4,-,N/A,,Overcast,150,2012-12-26 22:55:00
5:15 PM,18.0,7.7,64,29.97,10.0,SSE,9.2,-,N/A,,Overcast,150,2012-12-26 23:15:00
5:35 PM,17.6,7.7,65,29.97,10.0,SSE,13.8,-,N/A,,Overcast,160,2012-12-26 23:35:00
5:55 PM,17.2,8.6,69,29.97,10.0,SE,11.5,-,N/A,,Scattered Clouds,140,2012-12-26 23:55:00
6:15 PM,17.1,8.8,70,29.97,10.0,SSE,10.4,-,N/A,,Clear,150,2012-12-27 00:15:00
6:35 PM,17.1,8.6,69,29.96,10.0,SE,13.8,-,N/A,,Clear,140,2012-12-27 00:35:00
6:55 PM,16.7,8.4,70,29.96,10.0,SE,13.8,19.6,N/A,,Clear,140,2012-12-27 00:55:00
7:15 PM,16.7,8.6,70,29.95,10.0,SE,12.7,-,N/A,,Clear,140,2012-12-27 01:15:00
7:35 PM,16.5,8.2,70,29.95,10.0,SSE,13.8,-,N/A,,Clear,150,2012-12-27 01:35:00
7:55 PM,15.8,7.7,70,29.95,10.0,SSE,12.7,-,N/A,,Clear,150,2012-12-27 01:55:00
8:15 PM,15.8,7.7,70,29.95,10.0,SSE,11.5,-,N/A,,Clear,150,2012-12-27 02:15:00
8:35 PM,15.6,7.7,71,29.95,10.0,SSE,11.5,-,N/A,,Clear,150,2012-12-27 02:35:00
8:55 PM,15.6,7.7,71,29.95,10.0,SSE,12.7,-,N/A,,Scattered Clouds,150,2012-12-27 02:55:00
9:15 PM,15.6,7.5,70,29.95,10.0,SSE,11.5,-,N/A,,Scattered Clouds,160,2012-12-27 03:15:00
9:35 PM,15.4,7.5,71,29.94,10.0,SSE,12.7,-,N/A,,Scattered Clouds,150,2012-12-27 03:35:00
9:55 PM,15.3,7.7,72,29.95,10.0,SSE,16.1,20.7,N/A,,Clear,160,2012-12-27 03:55:00
10:15 PM,15.3,6.8,69,29.95,10.0,South,13.8,-,N/A,,Scattered Clouds,170,2012-12-27 04:15:00
10:35 PM,14.7,6.1,69,29.95,10.0,South,15.0,-,N/A,,Scattered Clouds,170,2012-12-27 04:35:00
10:55 PM,14.7,5.9,68,29.95,10.0,SSE,13.8,18.4,N/A,,Mostly Cloudy,160,2012-12-27 04:55:00
11:15 PM,14.7,6.1,69,29.95,10.0,SSE,12.7,-,N/A,,Overcast,160,2012-12-27 05:15:00
11:35 PM,14.2,5.4,68,29.95,10.0,SSE,12.7,-,N/A,,Overcast,160,2012-12-27 05:35:00
11:55 PM,14.0,5.0,67,29.95,10.0,South,12.7,-,N/A,,Overcast,170,2012-12-27 05:55:00